TimeCST,TemperatureF,Dew PointF,Humidity,Sea Level PressureIn,VisibilityMPH,Wind Direction,Wind SpeedMPH,Gust SpeedMPH,PrecipitationIn,Events,Conditions,WindDirDegrees,DateUTC
12:00 AM,81,75,76,29.97,12,East,11.5,,,,Partly Cloudy,90,2013-05-13 06:00:00
3:00 AM,80,74,76,29.93,12,ESE,11.5,,,,Scattered Clouds,110,2013-05-13 09:00:00
5:00 AM,80.6,73.4,79,29.95,6.2,East,6.9,-,N/A,Rain,Light Rain Showers,100,2013-05-13 11:00:00
6:00 AM,80,73,74,29.99,12,East,6.9,,,,Partly Cloudy,90,2013-05-13 12:00:00
6:00 AM,80.6,73.4,79,29.98,6.2,East,6.9,-,N/A,,Mostly Cloudy,90,2013-05-13 12:00:00
7:00 AM,84.2,73.4,70,30.01,6.2,East,11.5,-,N/A,,Mostly Cloudy,90,2013-05-13 13:00:00
8:00 AM,84.2,73.4,70,30.01,6.2,East,11.5,-,N/A,,Mostly Cloudy,80,2013-05-13 14:00:00
9:00 AM,86,74,61,30.04,14,East,11.5,,,,Mostly Cloudy,80,2013-05-13 15:00:00
9:00 AM,86.0,75.2,70,30.03,6.2,East,11.5,-,N/A,,Mostly Cloudy,80,2013-05-13 15:00:00
10:00 AM,86.0,73.4,66,30.04,6.2,East,12.7,-,N/A,,Mostly Cloudy,80,2013-05-13 16:00:00
10:20 AM,86.0,73.4,66,30.04,0.4,East,13.8,-,N/A,,Smoke,90,2013-05-13 16:20:00
11:00 AM,87.8,73.4,62,30.04,0.4,ENE,15.0,-,N/A,,Smoke,70,2013-05-13 17:00:00
11:15 AM,87.8,73.4,62,30.03,6.2,East,12.7,-,N/A,,Mostly Cloudy,80,2013-05-13 17:15:00
12:00 PM,87.8,75.2,66,30.03,6.2,East,13.8,-,N/A,,Scattered Clouds,80,2013-05-13 18:00:00
1:00 PM,87.8,73.4,62,30.01,6.2,East,11.5,-,N/A,,Scattered Clouds,90,2013-05-13 19:00:00
3:00 PM,87,73,54,30.00,14,ENE,12.7,,,,Partly Cloudy,70,2013-05-13 21:00:00
3:00 PM,87.8,73.4,62,29.99,6.2,ENE,12.7,-,N/A,,Mostly Cloudy,70,2013-05-13 21:00:00
4:00 PM,86.0,75.2,70,29.98,6.2,East,10.4,-,N/A,,Mostly Cloudy,80,2013-05-13 22:00:00
5:00 PM,86.0,73.4,66,29.99,6.2,ENE,13.8,-,N/A,,Mostly Cloudy,60,2013-05-13 23:00:00
6:00 PM,84.2,73.4,70,30.00,6.2,East,12.7,-,N/A,Rain,Light Rain Showers,80,2013-05-14 00:00:00
9:00 PM,82,73,67,30.06,12,East,8.1,,,,,80,2013-05-14 03:00:00